Volver al catálogo

STARLINK-37542

ActivoComunicacionesSSO
NORAD 68917·PAYLOAD·🇺🇸 United States

Lanzado Apr 30, 2026 desde Vandenberg Space Force Base

Loading…

Próximos Pases (próximas 24 horas)

TLE

ActualizadoSource: CelesTrak SupGP

Época: Sep 14, 2026, 23:08 UTC

1 68917C 26097Y   26257.96437500  .00079601  00000+0  24711-2 0  2577
2 68917  97.2852  92.2388 0001677  96.9279  28.4783 15.33397192    17

Sigue STARLINK-37542 en tiempo real con AllMySat

Download on the App Store